Location: Meanaryar
(48.4161°N, 4.7315°W)
Time: 11:15:09
(UTC+00:00)

NOSS 2-2 (E) - Pass Details

Date: 18 September 2020
Orbit: 468 x 1739 km, 63.3° (Epoch: 22 October)

Event Time Altitude Azimuth Distance (km) Brightness Sun altitude
Rises 19:10:51 0° 198° (SSW) 2,499 6.8 -8.5°
Reaches altitude 10° 19:13:00 10° 189° (S) 1,622 5.7 -8.8°
Maximum altitude 19:16:13 36° 121° (ESE) 794 3.7 -9.3°
Drops below altitude 10° 19:19:47 10° 54° (NE) 1,804 5.6 -9.9°
Sets 19:22:18 0° 46° (NE) 2,834 6.6 -10.3°
